Home   Weather   Eucla   Past weeks

Flag for Australia Past Weather in Eucla, Western Australia, Australia — Yesterday and Last 2 Weeks

Now
42 °F

Quite cool.


Feels Like: 38 °F
Forecast: 49 / 69 °F
Wind: 6 mph from North

Location: Eucla Amo

Current Time: Jul 23, 2017 at 5:48:26 am

Latest Report: Jul 23, 2017 at 3:45 am


Visibility: N/A

Pressure: 30.12 "Hg

Humidity: 96%

Dew Point: 41 °F

Location of EuclaLocation

Past Weather in Eucla — Graph

°F

Eucla Temperature Yesterday

Maximum temperature yesterday: 71 °F (at 12:45 pm)
Minimum temperature yesterday: 44 °F (at 11:45 pm)
Average temperature yesterday: 56 °F

High & Low Weather Summary for the Past Weeks

 TemperatureHumidityPressure
High76 °F (Jul 20, 3:45 pm)96% (Jul 9, 2:45 am)30.36 "Hg (Jul 9, 2:45 am)
Low36 °F (Jul 8, 3:45 am)19% (Jul 20, 3:45 pm)29.82 "Hg (Jul 16, 3:45 am)
Average54 °F64%30.12 "Hg
* Reported Jul 8 3:45 am — Jul 23 3:45 am, Eucla. Weather by CustomWeather, © 2017

Note: Actual official high and low records may vary slightly from our data, if they occured in-between our weather recording intervals... More about our weather records

Advertising

Eucla Weather History for the Previous 24 Hours

Scroll right to see more
 ConditionsComfort  
Time TempWeatherWind HumidityBarometerVisibility
3:45 am
Sun, Jul 23
42 °FQuite cool.6 mph96%30.12 "HgN/A
2:45 am43 °FQuite cool.6 mph96%30.12 "HgN/A
12:45 am44 °FQuite cool.6 mph95%30.11 "HgN/A
11:45 pm
Sat, Jul 22
44 °FQuite cool.7 mph94%30.11 "HgN/A
9:45 pm47 °FCool.3 mph88%30.10 "HgN/A
8:45 pm54 °FCool.6 mph84%30.10 "HgN/A
6:45 pm56 °FCool.7 mph72%30.06 "HgN/A
5:45 pm56 °FCool.6 mph69%30.03 "HgN/A
3:45 pm63 °FSunny.8 mph57%30.00 "Hg25 mi
2:45 pm69 °FMild.14 mph43%29.98 "HgN/A
12:45 pm71 °FMild.15 mph30%30.00 "HgN/A
11:45 am70 °FMild.15 mph31%30.04 "HgN/A
9:45 am65 °FSunny.12 mph40%30.06 "Hg25 mi
8:45 am58 °FRefreshingly cool.9 mph50%30.05 "HgN/A
6:45 am48 °FCool.8 mph64%30.03 "HgN/A
5:45 am48 °FCool.8 mph64%30.01 "HgN/A
Weather by CustomWeather, © 2017

See weather overviewHow to use our weather pages